Вернуться в каталог

RESOURCESAT 2A

АктивенНаукаSSO
NORAD 41877·PAYLOAD·🇮🇳 India

Запущен Dec 7, 2016 с Satish Dhawan Space Centre

Loading…

Ближайшие Пролёты (ближайшие 24 часа)

TLE

СвежийSource: Space-Track

Эпоха: Sep 14, 2026, 14:19 UTC

1 41877U 16074A   26257.59714451  .00000199  00000-0  11067-3 0  9990
2 41877  98.7463 330.3395 0002423 154.0903 206.0396 14.21613474507006

Отслеживайте RESOURCESAT 2A в реальном времени с AllMySat

Download on the App Store